Showing default

HAIYANG 2D, 48621

Orbit data source: Space-Track

HAIYANG 2D, 48621 is a Chinese payload satellite in LEO that was launched on Wed, 19 May 2021 UTC via a CHANG ZHENG 4B launch vehicle from the Jiuquan Satellite Launch Center, China (JSC). Payload-class satellites include a variety of spacecraft equipped with specific instruments for various scientific and technological missions. These include communications satellites like Starlink; space stations such as the ISS; scientific satellites like the Hubble; Earth observation satellites from companies like Planet Labs, Umbra, and HawkEye 360; GPS; miniature CubeSats for education and research; and military/defense satellites.

Loading next visibility...
Identifier
48621, 2021-043A
Orbit
LEO
Country
Flag of CNCN / PRC
Related business
Manufacturer
SISE
Mission
Operational Civil Earth Obs Sci
Bus & Motor
CAST-968?, Unknown motor
Mass
~1,500 kg wet, ~1,500 kg dry
Launch date (UTC)
2021-05-19 (5 years ago)
Launch vehicle
CHANG ZHENG 4B
Launch site
Jiuquan Satellite Launch Center, China (JSC)
Object type
Payload
Rocket body
Debris
Shape & HBR
Box + 2 Pan, 2.0 m
Radar Cross Section
2.315 m², Large (>1 m²)

Expand to show TLE details & history
Last TLE update: 21 hours ago

TLE from 21 hours ago
0 HAIYANG 2D
1 48621U 21043A   26172.55787947  .00000037  00000-0  10733-3 0  9998
2 48621  65.9997 293.8179 0011463 268.3016  91.6740 13.83371233257159
Epoch: 2026-06-21T13:23Z
TLE epoch observation values (Epoch: 2026-06-21T13:23:20.786Z)
Latitude
0.00005°
Longitude
-176.77512°
Altitude
954.216 km
Speed
7.375 km/s
True Right ascension
19h 35m 16s
True Declination
0° 00' 00"
Sunlit
Object was in full shadow at epoch
Visualization orbit readout
Latitude
Unknown
Longitude
Unknown
Altitude
Unknown
Speed
Unknown
Apparent Right ascension
Unknown
Apparent Declination
Unknown
Sunlit
N/A
Visualization observer readout
Local Sidereal Time
21:30:13
Azimuth
Unknown
Elevation
Unknown
Doppler factor
Unknown
Orbital elements
Apogee altitude
958.846 km
Perigee altitude
942.045 km
Semi-major axis
7,328.582 km
Eccentricity
0.00115
Inclination
65.9997°
RAAN
293.8179°
Arg. of periapsis
268.3016°
True anomaly
91.80529°
Mean anomaly
91.674°
Eccentric anomaly
91.73965°
Mean motion
3.4595 °/min
Orbital period
104.06 mins
BSTAR
0.00010733
Loading maneuver chart data...
Computing Atmospheric mass density...
Loading historical data...
Loading historical data...
Loading historical data...
Loading historical data...
Loading historical data...
Loading historical data...
Loading historical data...
Other satellites on launch #43 in the year 2021 (2021-05-19 UTC)

Documentation

Showing up to 5 results
|